GW3251 Weather Reports


time (UTC)temp
C
wind
direction
speed
KPH
gust
KPH
rain 1hr
cm
rain 24hr
cm
rain mn
cm
humidity
%
barometer
mb
20260506130047 23 0 0.0 0.0 0.00 0.00 0.00 93 1009.9
20260506125537 23 0 0.0 0.0 0.00 0.00 0.00 93 1009.9
20260506125037 23 0 0.0 0.0 0.00 0.00 0.00 93 1009.9
20260506124546 23 0 0.0 0.0 0.00 0.00 0.00 93 1009.9
20260506124037 23 0 0.0 0.0 0.00 0.00 0.00 93 1009.7
20260506123540 23 0 0.0 0.0 0.00 0.00 0.00 93 1009.8
20260506123045 23 0 0.0 0.0 0.00 0.00 0.00 93 1009.8
20260506122536 23 0 0.0 0.0 0.00 0.00 0.00 93 1009.9
20260506122040 23 0 0.0 0.0 0.00 0.00 0.00 93 1009.9
20260506121553 23 0 0.0 0.0 0.00 0.00 0.00 93 1009.8
20260506121037 23 0 0.0 0.0 0.00 0.00 0.00 93 1009.7
20260506120538 23 0 0.0 0.0 0.00 0.00 0.00 93 1009.7
20260506120057 23 0 0.0 0.0 0.00 0.00 0.00 93 1009.7
20260506115538 23 0 0.0 0.0 0.00 0.00 0.00 93 1009.6
20260506115037 23 0 0.0 0.0 0.00 0.00 0.00 93 1009.6
20260506114546 23 0 0.0 0.0 0.00 0.00 0.00 93 1009.6
20260506114038 23 0 0.0 0.0 0.00 0.00 0.00 92 1009.6
20260506113538 23 0 0.0 0.0 0.00 0.00 0.00 92 1009.5
20260506113045 23 0 0.0 0.0 0.00 0.00 0.00 92 1009.4
20260506112540 23 0 0.0 0.0 0.00 0.00 0.00 92 1009.4
20260506112037 23 0 0.0 0.0 0.00 0.00 0.00 92 1009.5
20260506111548 23 0 0.0 0.0 0.00 0.00 0.00 92 1009.3
20260506111037 23 0 0.0 0.0 0.00 0.00 0.00 92 1009.4
20260506110537 23 0 0.0 0.0 0.00 0.00 0.00 92 1009.3
20260506105538 23 0 0.0 0.0 0.00 0.00 0.00 92 1009.2
20260506105039 23 0 0.0 0.0 0.00 0.00 0.00 92 1009.1
20260506104601 23 0 0.0 0.0 0.00 0.00 0.00 92 1009.1
20260506104038 23 0 0.0 0.0 0.00 0.00 0.00 92 1008.9
20260506103538 23 0 0.0 0.0 0.00 0.00 0.00 92 1008.9
20260506103049 23 0 0.0 0.0 0.00 0.00 0.00 92 1008.9
20260506102538 23 0 0.0 0.0 0.00 0.00 0.00 92 1008.9
20260506102040 23 0 0.0 0.0 0.00 0.00 0.00 92 1008.8
20260506101554 23 0 0.0 0.0 0.00 0.00 0.00 92 1008.6
20260506045038 23 0 0.0 14.5 0.00 0.00 0.00 90 1009.0
20260506044547 23 0 0.0 9.7 0.00 0.00 0.00 90 1009.0
20260506044041 23 0 0.0 9.7 0.00 0.00 0.00 90 1008.9
20260506043537 23 0 0.0 14.5 0.00 0.00 0.00 89 1008.8
20260506043048 23 0 0.0 14.5 0.00 0.00 0.00 89 1008.6
20260506042538 23 0 0.0 1.6 0.00 0.00 0.00 89 1008.6
20260506042038 23 0 0.0 1.6 0.00 0.00 0.00 89 1008.5
20260506041602 23 0 0.0 16.1 0.00 0.00 0.00 89 1008.7
20260506041037 23 0 0.0 16.1 0.00 0.00 0.00 89 1008.6
20260506040537 23 0 0.0 14.5 0.00 0.00 0.00 89 1008.5
20260506040049 24 0 0.0 20.9 0.00 0.00 0.00 88 1008.3
20260506035537 24 0 1.6 20.9 0.00 0.00 0.00 88 1008.2
20260506035038 24 0 0.0 20.9 0.00 0.00 0.00 88 1008.0
20260506034550 24 0 0.0 16.1 0.00 0.00 0.00 88 1008.1
20260506034041 24 0 0.0 20.9 0.00 0.00 0.00 88 1008.2
20260506033538 24 0 1.6 20.9 0.00 0.00 0.00 88 1008.0
20260506033048 24 207 0.0 17.7 0.00 0.00 0.00 87 1008.1
20260506032538 24 0 0.0 22.5 0.00 0.00 0.00 87 1007.9
20260506032038 24 0 0.0 22.5 0.00 0.00 0.00 87 1007.8
20260506031545 24 0 0.0 20.9 0.00 0.00 0.00 87 1007.8
20260506031037 24 0 0.0 14.5 0.00 0.00 0.00 87 1007.7
20260506030542 24 0 0.0 16.1 0.00 0.00 0.00 87 1007.7
20260506030047 24 0 0.0 16.1 0.00 0.00 0.00 87 1007.6
20260506025537 24 0 0.0 16.1 0.00 0.00 0.00 88 1007.7
20260506025037 24 0 0.0 17.7 0.00 0.00 0.00 87 1007.5
20260506024548 24 0 0.0 17.7 0.00 0.00 0.00 87 1007.5
20260506024037 24 0 0.0 6.4 0.00 0.00 0.00 87 1007.4
20260506023538 24 0 0.0 12.9 0.00 0.00 0.00 87 1007.4
20260506023105 24 0 0.0 14.5 0.00 0.00 0.00 87 1007.4
20260506022539 24 0 0.0 14.5 0.00 0.00 0.00 86 1007.3
20260506022038 25 0 0.0 14.5 0.00 0.00 0.00 86 1007.3
20260506021610 25 0 0.0 14.5 0.00 0.00 0.00 86 1007.4
20260506021039 25 0 0.0 12.9 0.00 0.00 0.00 86 1007.4
20260506020537 25 0 0.0 12.9 0.00 0.00 0.00 86 1007.3
20260506020044 25 0 0.0 14.5 0.00 0.00 0.00 86 1007.2
20260506015541 25 0 0.0 14.5 0.00 0.00 0.00 86 1007.4
20260506015040 25 0 0.0 11.3 0.00 0.00 0.00 86 1007.3
20260506014547 25 0 0.0 12.9 0.00 0.00 0.00 86 1007.1
20260506014040 25 0 0.0 12.9 0.00 0.00 0.00 86 1007.0
20260506013541 25 0 0.0 12.9 0.00 0.00 0.00 86 1007.0
20260506013057 25 0 0.0 14.5 0.00 0.00 0.00 85 1006.8
20260506012539 25 0 0.0 14.5 0.00 0.00 0.00 85 1006.6
20260506012039 25 0 0.0 1.6 0.00 0.00 0.00 84 1006.6
20260506011559 25 0 0.0 3.2 0.00 0.00 0.00 84 1006.4
20260506011038 25 0 0.0 12.9 0.00 0.00 0.00 84 1006.2
20260506010538 25 0 0.0 16.1 0.00 0.00 0.00 83 1006.2
20260506010056 25 0 0.0 17.7 0.00 0.00 0.00 83 1006.1
20260506005540 26 0 3.2 17.7 0.00 0.00 0.00 83 1006.0
20260506005037 26 0 0.0 17.7 0.00 0.00 0.00 83 1006.1
20260506004543 26 0 0.0 17.7 0.00 0.00 0.00 83 1006.0
20260506004039 26 0 0.0 9.7 0.00 0.00 0.00 82 1006.0
20260506003537 26 0 0.0 14.5 0.00 0.00 0.00 82 1006.1
20260506003045 26 0 0.0 14.5 0.00 0.00 0.00 82 1006.1
20260506002538 26 0 0.0 12.9 0.00 0.00 0.00 82 1006.0
20260506002038 26 209 0.0 6.4 0.00 0.00 0.00 81 1006.1
20260506001554 26 0 0.0 16.1 0.00 0.00 0.00 81 1006.2
20260506001038 26 0 0.0 16.1 0.00 0.00 0.00 81 1006.2
20260506000537 27 0 0.0 16.1 0.00 0.00 0.00 81 1006.1
20260506000054 27 0 0.0 16.1 0.00 0.00 0.00 80 1006.1
20260505235539 27 0 0.0 16.1 0.00 0.00 0.00 80 1006.0
20260505235038 27 196 0.0 17.7 0.00 0.00 0.00 79 1006.0
20260505234551 27 0 0.0 17.7 0.00 0.00 0.00 80 1006.0
20260505234038 27 199 0.0 17.7 0.00 0.00 0.00 79 1006.0
20260505233537 27 0 1.6 27.4 0.00 0.00 0.00 79 1006.1
20260505233048 27 0 1.6 27.4 0.00 0.00 0.00 79 1005.9
20260505232537 27 208 0.0 19.3 0.00 0.00 0.00 79 1005.8
20260505232041 27 0 0.0 16.1 0.00 0.00 0.00 80 1005.9
20260505231603 27 0 1.6 16.1 0.00 0.00 0.00 79 1005.8
20260505231037 27 0 0.0 16.1 0.00 0.00 0.00 79 1005.8
20260505230538 28 0 0.0 16.1 0.00 0.00 0.00 78 1005.8
20260505230051 28 0 0.0 19.3 0.00 0.00 0.00 78 1006.0
20260505225538 28 0 1.6 19.3 0.00 0.00 0.00 78 1006.0
20260505225038 28 0 0.0 17.7 0.00 0.00 0.00 78 1005.9
20260505224551 28 0 0.0 29.0 0.00 0.00 0.00 76 1005.8
20260505224037 28 0 0.0 29.0 0.00 0.00 0.00 78 1005.9
20260505223537 28 219 0.0 14.5 0.00 0.00 0.00 77 1006.0
20260505223049 28 215 0.0 12.9 0.00 0.00 0.00 75 1005.9
20260505222539 28 0 0.0 14.5 0.00 0.00 0.00 78 1005.9
20260505222038 28 0 0.0 14.5 0.00 0.00 0.00 77 1005.9
20260505221550 28 0 0.0 17.7 0.00 0.00 0.00 76 1006.0
20260505221038 28 0 0.0 17.7 0.00 0.00 0.00 75 1005.9
20260505220537 29 0 0.0 17.7 0.00 0.00 0.00 76 1006.0
20260505220059 28 0 0.0 17.7 0.00 0.00 0.00 77 1005.9
20260505215537 29 0 0.0 19.3 0.00 0.00 0.00 77 1006.0
20260505215037 28 0 0.0 19.3 0.00 0.00 0.00 76 1006.0
20260505214556 29 182 0.0 19.3 0.00 0.00 0.00 75 1006.0
20260505214038 29 0 0.0 25.7 0.00 0.00 0.00 75 1006.0
20260505213537 30 0 1.6 25.7 0.00 0.00 0.00 72 1006.2
20260505213049 30 0 0.0 19.3 0.00 0.00 0.00 73 1006.1
20260505212538 30 182 1.6 24.1 0.00 0.00 0.00 74 1006.2
20260505212038 30 0 1.6 24.1 0.00 0.00 0.00 72 1006.2
20260505211546 30 0 3.2 24.1 0.00 0.00 0.00 74 1006.4
20260505211038 30 242 0.0 17.7 0.00 0.00 0.00 72 1006.4
20260505210537 30 0 0.0 16.1 0.00 0.00 0.00 73 1006.5
20260505210050 30 142 1.6 19.3 0.00 0.00 0.00 72 1006.7
20260505205538 30 0 0.0 19.3 0.00 0.00 0.00 74 1006.7
20260505205038 30 0 0.0 19.3 0.00 0.00 0.00 73 1006.7
20260505204545 30 186 0.0 17.7 0.00 0.00 0.00 75 1006.9
20260505204040 30 0 1.6 17.7 0.00 0.00 0.00 73 1006.8
20260505203537 30 204 0.0 16.1 0.00 0.00 0.00 74 1007.0
20260505203106 30 0 0.0 16.1 0.00 0.00 0.00 73 1007.1
20260505202538 31 0 0.0 9.7 0.00 0.00 0.00 74 1007.1
20260505202038 30 0 0.0 19.3 0.00 0.00 0.00 75 1007.2
20260505201557 29 0 0.0 19.3 0.00 0.00 0.00 76 1007.3
20260505201038 29 0 0.0 22.5 0.00 0.00 0.00 74 1007.4
20260505200538 29 209 3.2 22.5 0.00 0.00 0.00 77 1007.5
20260505200052 28 0 0.0 17.7 0.00 0.00 0.00 77 1007.6
20260505195539 29 0 0.0 19.3 0.00 0.00 0.00 74 1007.4
20260505195037 30 0 1.6 19.3 0.00 0.00 0.00 72 1007.5
20260505194547 30 171 1.6 27.4 0.00 0.00 0.00 75 1007.5
20260505194038 28 0 0.0 27.4 0.00 0.00 0.00 76 1007.7
20260505193537 29 0 3.2 27.4 0.00 0.00 0.00 75 1007.6
20260505193045 29 0 3.2 17.7 0.00 0.00 0.00 76 1007.7
20260505192537 29 0 3.2 20.9 0.00 0.00 0.00 75 1007.7
20260505192042 30 0 3.2 20.9 0.00 0.00 0.00 74 1007.8
20260505191603 30 0 1.6 19.3 0.00 0.00 0.00 72 1007.8
20260505191038 29 0 6.4 19.3 0.00 0.00 0.00 74 1007.8
20260505190538 29 0 3.2 19.3 0.00 0.00 0.00 75 1007.9
20260505190053 29 0 1.6 19.3 0.00 0.00 0.00 75 1007.9
20260505185538 29 0 1.6 25.7 0.00 0.00 0.00 75 1008.0
20260505185037 28 0 4.8 25.7 0.00 0.00 0.00 76 1008.0
20260505184548 28 203 3.2 19.3 0.00 0.00 0.00 77 1007.9
20260505184038 28 0 0.0 19.3 0.00 0.00 0.00 77 1007.9
20260505183539 28 0 1.6 20.9 0.00 0.00 0.00 75 1008.1
20260505183047 30 0 3.2 20.9 0.00 0.00 0.00 75 1008.0
20260505182537 28 0 0.0 16.1 0.00 0.00 0.00 76 1008.1
20260505182037 28 0 0.0 24.1 0.00 0.00 0.00 76 1008.1
20260505181550 29 0 4.8 24.1 0.00 0.00 0.00 75 1008.2
20260505181038 29 0 4.8 32.2 0.00 0.00 0.00 77 1008.1
20260505180537 28 0 0.0 32.2 0.00 0.00 0.00 78 1008.3
20260505180100 27 0 3.2 30.6 0.00 0.00 0.00 78 1008.3
20260505175538 28 186 3.2 25.7 0.00 0.00 0.00 76 1008.3
20260505175038 27 0 6.4 25.7 0.00 0.00 0.00 80 1008.4
20260505174547 27 0 8.0 24.1 0.00 0.00 0.00 79 1008.5
20260505174038 28 0 1.6 22.5 0.00 0.00 0.00 78 1008.6
20260505173537 27 192 3.2 22.5 0.00 0.00 0.00 80 1008.7
20260505173051 27 0 4.8 22.5 0.00 0.00 0.00 78 1008.7
20260505172537 27 0 6.4 22.5 0.00 0.00 0.00 80 1008.7
20260505172038 27 233 3.2 25.7 0.00 0.00 0.00 82 1008.8
20260505171550 26 0 6.4 25.7 0.00 0.00 0.00 81 1008.8
20260505171038 27 199 0.0 24.1 0.00 0.00 0.00 79 1009.0
20260505170537 27 216 6.4 24.1 0.00 0.00 0.00 80 1008.8
20260505170103 27 0 3.2 24.1 0.00 0.00 0.00 81 1008.8
20260505165537 27 195 1.6 24.1 0.00 0.00 0.00 81 1008.8
20260505165040 27 216 4.8 24.1 0.00 0.00 0.00 82 1009.0
20260505164553 26 232 1.6 19.3 0.00 0.00 0.00 83 1009.1
20260505164037 26 0 3.2 19.3 0.00 0.00 0.00 84 1009.0
20260505163538 25 0 0.0 17.7 0.00 0.00 0.00 86 1008.9
20260505163049 25 0 1.6 24.1 0.00 0.00 0.00 86 1009.3
20260505162538 25 0 0.0 24.1 0.00 0.00 0.00 86 1009.1
20260505162038 25 201 3.2 22.5 0.00 0.00 0.00 86 1009.2
20260505161546 25 0 1.6 20.9 0.00 0.00 0.00 86 1009.1
20260505161038 25 214 0.0 22.5 0.00 0.00 0.00 86 1009.3
20260505160538 25 205 1.6 22.5 0.00 0.00 0.00 86 1009.4
20260505153100 24 0 1.6 19.3 0.00 0.00 0.00 88 1009.0
20260505152538 23 0 0.0 19.3 0.00 0.00 0.00 88 1008.9
20260505152039 23 194 1.6 19.3 0.00 0.00 0.00 88 1008.9
20260505151602 23 236 3.2 19.3 0.00 0.00 0.00 88 1009.0
20260505151038 23 0 1.6 29.0 0.00 0.00 0.00 89 1009.1
20260505150542 23 182 3.2 29.0 0.00 0.00 0.00 89 1009.0
20260505140537 22 0 3.2 17.7 0.00 0.00 0.00 91 1008.8